#timestamp,LO_Frequency,Hit,StdDev 
1520953215.6,286047004.0,N
1520953235.4,286047004.4,N
1520953255.3,286047001.3,N
1520953275.1,286047004.0,N
1520953295.8,286047001.5,N
1520953315.7,286047004.4,N
1520953335.5,286047002.0,N
1520953355.4,286047002.2,N
1520953375.2,286047002.6,N
1520953395.0,286047002.0,N
1520953395.9,286047002.0,N
1520953415.8,286047002.4,N
1520953435.6,286047002.1,N
1520953455.5,286047001.5,N
1520953475.3,286047004.2,N
1520953495.1,286047003.4,N
1520953515.9,286047004.3,Y
1520953535.7,286047000.8,P
1520953555.5,286047000.8,N
1520953575.4,286046998.1,N
1520953595.2,286047001.0,N
1520953615.1,286047001.2,N
1520953616.0,286047001.2,N
1520953635.8,286046998.8,N
1520953655.6,286046998.9,N
1520953675.5,286046998.9,N
1520953695.3,286046998.1,N
1520953715.1,286047001.1,N
1520953735.9,286047000.7,N
1520953755.7,286047000.9,N
1520953775.6,286047001.2,N
1520953795.4,286047000.9,N
1520953815.2,286047000.4,N
1520953835.1,286047002.8,N
1520953836.0,286047002.8,N
1520953855.8,286047000.2,N
1520953875.7,286047000.3,N
1520953895.5,286047001.1,N
1520953915.3,286047000.8,N
1520953935.2,286047000.5,N
1520953955.9,286047000.5,N
1520953975.7,286047000.1,N
1520953995.6,286047000.3,N
1520954015.4,286046999.8,N
1520954035.3,286047000.0,N
1520954055.1,286046998.5,N
1520954056.0,286046998.5,N
1520954075.8,286046999.0,N
1520954095.7,286046998.1,N
1520954115.5,286046996.9,N
1520954135.3,286046995.0,Y
1520954155.2,286046995.0,P
1520954175.0,286046994.9,N
1520954175.9,286046994.9,N
1520954195.8,286046995.5,N
1520954215.6,286046998.0,N
1520954235.4,286046995.8,N
1520954255.3,286046995.1,N
1520954275.1,286046995.4,N
1520954295.8,286046995.7,N
1520954315.7,286046994.1,Y
1520954335.5,286046999.6,P
1520954355.4,286046999.6,N
1520954375.2,286046996.6,N
1520954395.0,286046996.5,N
1520954395.9,286046996.5,N
1520954415.8,286046995.1,Y
1520954435.6,286046997.1,P
1520954455.5,286046998.0,P
1520954475.3,286046997.9,P
1520954495.1,286046997.3,Y
1520954515.9,286046999.2,P
1520954535.7,286046999.2,N
1520954585.6,286046999.6,E
1520954595.5,286046996.5,N
1520954615.3,286046995.4,P
1520954635.2,286046997.7,P
1520954655.0,286046999.3,N
1520954655.9,286046999.3,N
1520954675.8,286046996.5,N
1520954695.6,286046998.7,N
1520954715.4,286046999.5,N
1520954735.3,286046997.1,N
1520954755.1,286046996.8,N
1520954775.9,286046997.2,N
1520954795.7,286046997.2,N
1520954815.5,286046997.1,N
1520954835.4,286046998.3,N
1520954855.2,286046998.6,N
1520954875.0,286046996.9,N
1520954875.9,286046996.9,N
1520954895.8,286046997.5,N
1520954915.6,286046995.2,Y
1520954935.5,286046998.5,P
1520954955.3,286046998.6,P
1520954975.1,286046998.7,N
1520954995.9,286046997.0,Y
1520955015.7,286046998.6,P
1520955035.6,286046998.6,P
1520955055.4,286046996.9,P
1520955075.2,286046999.6,N
1520955095.1,286047001.1,N
1520955096.0,286047001.1,N
1520955115.8,286047001.1,N
1520955135.7,286046998.7,N
1520955155.5,286046999.1,N
1520955175.3,286046999.6,N
1520955195.2,286046997.2,N
1520955215.0,286046997.1,N
1520955215.9,286046997.1,N
1520955235.8,286046998.0,N
1520955255.6,286046997.0,N
1520955275.4,286046997.2,N
1520955295.3,286046997.4,N
1520955315.1,286046999.2,N
1520955335.9,286046997.0,N
1520955355.7,286046997.8,N
1520955375.5,286046997.9,N
1520955395.4,286046996.8,N
1520955415.2,286046997.7,N
1520955435.1,286046995.7,Y
1520955436.0,286046995.7,P
1520955455.8,286046999.6,N
1520955475.6,286046997.5,N
1520955495.5,286046997.9,N
1520955515.3,286046995.0,Y
1520955535.1,286046999.4,P
1520955555.9,286046999.6,N
1520955575.7,286046998.3,N
1520955595.6,286046998.3,N
1520955615.4,286046998.6,N
1520955635.2,286047000.2,N
1520955655.1,286047000.0,N
1520955656.0,286047000.0,N
1520955675.8,286047000.8,N
1520955695.7,286047000.2,N
1520955715.5,286046998.7,N
1520955735.3,286046999.4,N
1520955755.2,286046997.1,Y
1520955775.0,286046996.9,P
1520955775.9,286046996.9,N
1520955795.7,286046999.1,N
1520955815.6,286046998.5,N
1520955835.4,286047000.4,N
1520955855.3,286047001.6,N
1520955875.1,286047002.5,N
1520955876.0,286047002.5,N
1520955895.8,286047002.0,N
1520955915.7,286047001.5,N
1520955935.5,286047003.3,N
1520955955.4,286047003.2,N
1520955975.2,286047004.1,N
1520955995.0,286046999.8,N
1520955995.9,286046999.8,N
1520956015.8,286047001.0,N
1520956035.6,286047000.7,N
1520956055.4,286047000.5,N
1520956075.3,286046998.2,N
1520956095.1,286046998.3,N
1520956115.9,286046998.4,N
1520956135.7,286046999.3,N
1520956155.5,286046998.1,N
1520956175.4,286046999.9,N
1520956195.2,286047000.4,N
1520956215.0,286047000.9,N
1520956215.9,286047000.9,N
1520956235.8,286047002.4,N
1520956255.6,286046999.9,N
1520956275.5,286047002.5,N
1520956295.3,286047002.1,N
1520956315.1,286047003.1,N
1520956335.9,286047001.8,N
1520956355.7,286047004.1,N
1520956375.5,286047003.2,N
1520956395.4,286047005.5,Y
1520956415.2,286047003.8,P
1520956435.1,286047002.9,N
1520956436.0,286047002.9,N
1520956455.8,286047003.0,Y
1520956475.6,286047000.0,P
1520956495.5,286046999.9,N
1520956515.3,286046999.7,N
1520956535.2,286047000.6,N
1520956555.9,286047011.9,Y
1520956575.7,286046999.8,P
1520956595.6,286046999.8,N
1520956615.4,286047002.5,P
1520956635.2,286047002.4,N
1520956655.1,286047001.6,N
1520956656.0,286047001.6,N
1520956675.8,286047002.3,N
1520956695.7,286047002.4,N
1520956715.5,286047001.5,N
1520956735.3,286047003.5,Y
1520956755.2,286047001.6,P
1520956775.0,286047001.5,P
1520956775.9,286047001.5,P
1520956795.8,286047004.4,Y
